Location: Cast�ra
(43.8052°N, 0.4308°E)
Time: 18:29:24
(UTC+00:00)

Daily predictions for brighter satellites

Satellite Brightness Start Highest point End
(mag) Time Altitude Azimuth Time Altitude Azimuth Time Altitude Azimuth
Lacrosse 5 rocket 2.3 16:46:43 10° WSW 16:50:49 41° NW 16:54:43 10° NE
SMAP 3.4 16:49:28 10° SE 16:53:51 43° ENE 16:58:15 10° N
Cosmos 2369 Rocket 3.9 16:52:12 10° NNE 16:54:03 11° NE 16:55:54 10° ENE
NOAA 6 4.4 16:49:53 10° S 16:54:59 71° WSW 17:00:08 10° NNW
YAOGAN 6 4.4 16:54:24 10° E 16:55:45 12° ENE 16:57:06 10° NE
SJ-7 4.4 16:52:24 10° SSE 16:56:36 81° ENE 17:00:44 10° N
SL-4 R/B 3.1 16:54:18 10° WNW 16:57:31 28° N 17:01:00 10° NE
SL-16 R/B 3.2 16:54:08 10° SSE 16:58:54 28° ESE 17:03:40 10° NE
IRS-1C Rocket 4.2 16:54:30 10° SSE 16:59:39 57° ENE 17:04:49 10° N
Cosmos 921 Rocket 4.1 16:56:39 10° N 17:00:03 22° ENE 17:03:29 10° ESE
Cosmos 1743 4.4 16:58:07 10° NE 17:00:14 14° ENE 17:02:20 10° ESE
Aureole 1 Rocket 3.1 17:00:19 10° SSE 17:02:58 30° ESE 17:05:50 10° NE
FALCON 9 DEB 3.2 16:59:41 10° SW 17:03:11 81° SE 17:06:35 11° ENE
ALOS 3.8 17:00:22 10° SSW 17:04:45 41° W 17:09:11 10° NNW
NOSS 0 Rocket 4.1 17:00:06 10° SSW 17:06:20 80° WNW 17:12:36 10° NNE
Cosmos 2237 Rocket 2.2 17:01:58 10° SSW 17:07:41 87° ESE 17:13:24 10° NNE
CORIOLIS 4.3 17:02:33 10° SE 17:07:49 53° ENE 17:13:06 10° N
Cosmos 1812 2.9 17:07:20 10° SSW 17:11:12 75° W 17:15:04 10° N
Cosmos 2333 Rocket 3.6 17:06:05 10° WSW 17:11:21 37° NW 17:16:41 10° NNE
ATLAS 5 CENTAUR R/B 0.5 17:09:37 10° SW 17:12:14 71° SE 17:13:53 14° NE
CZ-4 R/B 2.8 17:09:55 10° ESE 17:12:15 16° ENE 17:14:34 10° NNE
NOSS 7 (D) 4.4 17:09:19 10° NW 17:12:21 75° SW 17:15:50 10° SSE
ATLAS 2AS CENTAUR R/B 4.4 17:09:45 10° W 17:16:30 29° NNW 17:23:12 10° NNE
Cosmos 2219 Rocket 3.7 17:12:30 10° WSW 17:17:33 33° NW 17:22:39 10° N
Cosmos 1782 Rocket 4.2 17:16:24 10° N 17:20:18 31° ENE 17:24:10 10° SE
Cosmos 1500 3.9 17:16:38 10° NNW 17:20:19 56° W 17:23:59 10° S
Cosmos 292 Rocket 3.7 17:15:57 10° NNW 17:20:48 66° ENE 17:25:37 10° SSE
Cosmos 1943 Rocket 3.4 17:20:47 10° N 17:24:57 20° NE 17:27:53 14° E
Abrixas rocket 4.4 17:23:50 10° SSE 17:25:07 12° SE 17:26:12 11° ESE
Cosmos 1862 Rocket 4.2 17:22:40 10° SSW 17:26:57 57° W 17:31:18 10° N
ISS -1.2 17:25:15 10° W 17:28:01 24° SW 17:30:48 10° SSE
Okean 2 Rocket 4.4 17:25:42 10° NNE 17:28:55 19° ENE 17:32:08 10° ESE
Cosmos 1703 Rocket 3.7 17:26:02 10° S 17:30:23 55° E 17:34:47 10° NNE
Sich 1 Rocket 4.3 17:27:06 10° NNE 17:31:02 31° ENE 17:34:57 10° SE
STARLINK-52 3.2 17:28:05 10° WSW 17:31:35 75° NNW 17:33:53 20° NE
Cosmos 1190 Rocket 4.5 17:27:08 10° S 17:31:56 39° ESE 17:36:02 14° NE
Cosmos 1975 3.9 17:32:43 10° NNE 17:35:55 23° ENE 17:39:07 10° SE
Cosmos 1627 Rocket 4.5 17:30:44 10° S 17:36:41 59° E 17:42:42 10° NNE
CSL-04 Rocket 4.3 17:32:41 10° ESE 17:37:12 30° ENE 17:41:44 10° N
Cosmos 1980 4.5 17:33:54 10° SW 17:39:22 51° WNW 17:44:54 10° NNE
STARLINK-60 4.0 17:36:30 10° W 17:39:42 39° NNW 17:41:33 21° NNE
STARLINK-29 3.5 17:36:17 10° WSW 17:39:45 58° NNW 17:41:45 23° NE
Lacrosse 5 3.7 17:37:58 10° SSE 17:40:30 14° ESE 17:41:13 13° ESE
Shenzhou-11 Module 3.3 17:37:59 10° W 17:40:30 32° SSW 17:42:36 13° SE
Cosmos 2195 Rocket 4.5 17:34:37 10° S 17:40:47 70° E 17:47:03 10° NNE
Okean O Rocket 4.3 17:37:43 10° SW 17:41:06 22° W 17:44:31 10° NW
USA 215 3.7 17:36:17 13° NE 17:42:01 54° NNW 17:48:19 10° WSW
STARLINK-43 4.1 17:39:41 10° SSW 17:43:07 37° SE 17:44:33 26° E
H-2A R/B 3.3 17:39:49 10° S 17:43:28 58° W 17:47:07 10° NNW
Cosmos 1441 Rocket 3.0 17:41:15 10° N 17:45:04 71° E 17:48:48 10° SSE
Cosmos 614 Rocket 3.9 17:42:32 10° S 17:47:34 65° ESE 17:51:50 14° NNE
Cosmos 2242 Rocket 4.4 17:44:34 10° SSW 17:49:03 55° WNW 17:53:34 10° N
Cosmos 2297 3.6 17:44:16 10° NNW 17:49:59 75° ENE 17:55:38 10° SSE
Cosmos 1092 Rocket 4.1 17:45:18 10° S 17:51:36 82° W 17:57:54 10° N
COBE Rocket 4.4 17:48:23 10° N 17:52:57 57° WNW 17:57:33 10° SSW
Cosmos 1174 4.1 17:49:32 10° SSW 17:54:40 86° WNW 17:57:14 23° NNE
CSL-04 Debris 4.4 17:51:03 10° SE 17:56:11 44° ENE 18:01:18 10° N
Genesis I 3.5 17:55:10 10° NW 17:59:02 68° WSW 18:02:49 10° SSE
Okean-O 2.9 17:58:20 10° S 18:02:45 69° WSW 18:07:11 10° NNW
Cosmos 1666 4.0 18:00:53 10° NNW 18:04:24 41° W 18:07:55 10° SSW
Envisat 3.2 18:03:03 10° S 18:08:06 72° WSW 18:13:12 10° NNW
BREEZE-M R/B 3.1 18:03:43 10° WNW 18:08:17 40° N 18:08:34 39° NNE
CZ-4 R/B 4.3 18:04:16 10° SSE 18:08:24 73° ENE 18:12:35 10° N
Okean 1-7 3.3 18:04:39 10° SSW 18:08:57 67° W 18:13:20 10° N
Cosmos 1140 Rocket 3.4 18:04:21 10° S 18:09:25 67° ESE 18:12:14 27° NNE
COSMO-SKYMED 1 2.4 18:06:07 17° NNE 18:09:26 80° ESE 18:13:46 10° S
YAOGAN 1 2.5 18:09:08 10° SSE 18:13:22 58° ENE 18:17:37 10° N
USA 267 3.7 18:09:18 10° SE 18:15:46 62° SW 18:22:16 10° NW
Meteor 1-18 Rocket 4.1 18:11:31 10° S 18:17:14 86° ESE 18:22:54 10° NNE
Meteor 2-9 Rocket 4.2 18:12:12 10° N 18:18:01 60° ENE 18:23:42 10° SSE
Cosmos 407 Rocket 3.7 18:13:04 10° SSW 18:18:15 72° WNW 18:22:12 18° NNE
NOSS 3-1 (C) 4.4 18:11:27 10° NNW 18:18:20 40° NE 18:20:52 33° ENE
Cosmos 1023 Rocket 4.3 18:14:06 10° SSW 18:19:11 84° ESE 18:21:54 29° NNE
NOAA 11 4.2 18:15:40 10° SSE 18:20:58 55° ENE 18:26:19 10° N
Cosmos 1943 4.2 18:20:47 10° SSE 18:24:15 27° SE 18:24:15 27° SE
S3M 3.9 18:20:09 10° N 18:26:20 64° E 18:32:23 10° SSE
BREEZE-M DEB (TANK) 2.7 18:24:11 10° WNW 18:27:34 41° SW 18:27:34 41° SW
USA 229 DEB 4.2 18:21:20 10° NNW 18:28:11 44° NE 18:29:44 39° ENE
USA 229 4.2 18:21:26 10° NNW 18:28:16 43° NE 18:29:47 39° ENE
YAOGAN 6 3.4 18:25:21 10° S 18:28:47 49° W 18:32:17 10° NNW
CZ-4C R/B 3.1 18:25:02 10° S 18:28:04 28° SE 18:28:04 28° SE
Lacrosse 5 rocket 3.5 18:28:29 10° NW 18:30:53 15° NNW 18:31:14 15° N
Cosmos 2266 Rocket 4.1 18:26:32 10° SSE 18:32:39 50° E 18:33:59 43° NE
Cosmos 1743 3.9 18:32:34 10° NNW 18:36:15 43° W 18:39:56 10° SSW
SL-4 R/B 3.5 18:34:29 10° NW 18:36:53 25° NNW 18:36:53 25° NNW
Cosmos 1553 Rocket 4.1 18:31:47 10° N 18:38:11 82° W 18:44:36 10° S
Okean 1 4.5 18:35:11 10° SSW 18:38:58 41° WNW 18:41:13 21° NNW
Cosmos 2369 Rocket 2.2 18:33:50 10° NNW 18:39:07 55° NE 18:39:07 55° NE
SL-16 R/B 3.1 18:37:19 10° SW 18:42:45 45° WNW 18:46:25 20° N
CZ-4 R/B 2.4 18:43:14 10° S 18:46:56 43° W 18:50:39 10° NNW
Cosmos 1603 3.7 18:43:59 10° S 18:49:20 64° SE 18:49:20 64° SE
Okean 3 4.0 18:45:33 10° SSW 18:48:47 52° SSW 18:48:47 52° SSW
Cosmos 1867 3.8 18:44:33 10° NW 18:49:59 67° WSW 18:52:47 29° SSE
Cosmos 2237 Rocket 4.5 18:48:43 10° W 18:52:31 18° NW 18:56:21 10° N
CZ-3B R/B 4.2 18:53:29 10° S 18:56:13 14° SSE 18:56:13 14° SSE
Gbstr 26 Del rocket 4.2 18:51:10 10° SSW 18:57:35 50° SSE 18:57:35 50° SSE
Meteor 2-4 Rocket 3.8 19:00:01 10° SSW 19:05:54 79° W 19:06:55 62° N
Okean 2 Rocket 4.2 19:02:58 10° NNW 19:07:12 42° W 19:11:26 10° SSW
Cosmos 1943 Rocket 2.2 19:03:40 10° NNW 19:09:18 73° WSW 19:09:31 72° SW
Cosmos 2344 4.3 19:09:42 10° NW 19:19:22 69° NE 19:22:30 53° ESE
Lacrosse 5 3.2 19:17:39 10° SW 19:20:28 34° SW 19:20:28 34° SW
USA 215 4.4 19:23:38 30° N 19:24:11 30° N 19:29:42 10° WNW
